Preview of NWS' New Version of Forecast
This preview is not operational and should not be used for support decisions.

Regional Weather Roundup (RWR)

Issued by Gray - Portland, ME (GYX)

                            
728 
ASUS41 KGYX 251705
RWRGYX
WEATHER ROUNDUP FOR MAINE AND NEW HAMPSHIRE
NATIONAL WEATHER SERVICE GRAY ME
100 PM EDT FRI MAY 25 2018

MEZ002-005-006-010-012-015-018-020-021-024-026-027-029-251800-
MAINE
  
CITY           SKY/WX    TMP DP  RH WIND       PRES   REMARKS
PORTLAND       CLOUDY    81  50  33 W14G23    29.74F                  
SANFORD        FAIR      85  51  31 W12G28    29.77F                  
BAR HARBOR     FAIR      77  55  46 S16       29.63                   
WISCASSET      FAIR      84  51  31 SW14G22   29.70F                  
ROCKLAND       FAIR      80  56  43 SW10G23   29.68F                  
FRYEBURG       FAIR      84  50  30 VRB6G21   29.73F                  
LEWISTONAUBURN FAIR      82  52  35 W13       29.72F                  
AUGUSTA        FAIR      83  50  31 W13G25    29.69F                  
WATERVILLE     FAIR      84  53  34 SW15G23   29.65F                  
BANGOR         PTSUNNY   83  51  33 SW16G25   29.62F                  
GREENVILLE       N/A     81  48  31 NW13G22   29.62F                  
MILLINOCKET    FAIR      85  49  28 NW18G32   29.56F                  
HOULTON        FAIR      75  55  49 S8        29.55F                  
PRESQUE ISLE   LGT RAIN  60  56  86 NE5       29.58S                  
FRENCHVILLE    FAIR      65  52  62 SW6       29.56F                  
CARIBOU        LGT RAIN  59  53  80 CALM      29.57F                  
$$

NHZ002-005-008-009-011-012-014-251800-
NEW HAMPSHIRE
  
CITY           SKY/WX    TMP DP  RH WIND       PRES   REMARKS
ROCHESTER      FAIR      86  51  29 NW10G16   29.76F                  
NASHUA         FAIR      85  51  31 W12G23    29.82F                  
MANCHESTER     PTSUNNY   88  47  24 W10G25    29.78F                  
CONCORD        FAIR      87  44  22 W17G24    29.79F                  
LACONIA        FAIR      82  48  30 W17G28    29.77F                  
PLYMOUTH       FAIR      84  45  25 SW8G20    29.77F                  
BERLIN         FAIR      83  50  31 W10G24    29.74F                  
WHITEFIELD     FAIR      81  51  35 W17G26    29.76F                  
JAFFREY        FAIR      83  44  25 SW14G28   29.87F                  
KEENE          FAIR      85  46  25 W13G24    29.84F                  
LEBANON        FAIR      85  49  28 W12G20    29.80F                  
MT WASHINGTON  PTSUNNY   52  43  71 W58G72      N/A                   
$$

VTZ005-007-008-251800-
VERMONT
  
CITY           SKY/WX    TMP DP  RH WIND       PRES   REMARKS
MONTPELIER     FAIR      78  51  38 W10G23    29.84F                  
BURLINGTON     LGT RAIN  76  55  48 W7        29.79S                  
$$

MAZ007-012-024-CTZ003-RIZ002-NYZ038-NYZ072-251800-
SOUTHERN NEW ENGLAND AND NY
  
CITY           SKY/WX    TMP DP  RH WIND       PRES   REMARKS
BOSTON         PTSUNNY   85  45  24 W17G26    29.82F                  
WORCESTER      FAIR      79  49  34 W18G29    29.89F                  
NANTUCKET      FAIR      62  56  80 SW23G29   29.93F                  
PROVIDENCE     PTSUNNY   85  53  33 W9G18     29.88F                  
HARTFORD       PTSUNNY   87  47  24 W17G26    29.88F                  
ALBANY         FAIR      84  51  31 W14G25    29.88F                  
NEW YORK CITY  PTSUNNY   86  46  24 SW15G22   29.93F                  
$$

ANZ081-ANZ082-ANZ150-NHZ014-MEZ023>029-251800-
COASTAL MARINE OBSERVATIONS
  
STATION/POSITION TIME  TEMP    WIND        PRES    WAVE
                       AIR SEA DIR/SP/G            HT/PER
                 (UTC) (F)     (DEG/KT/KT) (MB)    (FT/S)
MOUNT DESERT ROC 1600   53     220/ 21/ 23 1006.1F
MATINICUS ROCK   1600   55     240/ 26/ 28 1005.8F
ISLE OF SHOALS   1600   78     260/ 23/ 24 1008.6F
JEFFREYS LEDGE   1636      54                N/A     3/ 5
CASHES LEDGE BUO 1550   60 51              1008.0    5/ 6
$$

.............KEY..............
   WCI - WIND CHILL
   TC  - TEMPERATURE IN CELSIUS
   VSB - VISIBILITY IN MILES
   HX  - HEAT INDEX
   FAIR- INDICATES FEW OR NO CLOUDS BELOW 12,000 FT, WITH NO 
         SIGNIFICANT WEATHER AND/OR OBSTRUCTIONS TO VISIBILITY.